User: anonymous
Location: Caltech
(34.1382°N, 118.1253°W)
Time: 05:43:52
(UTC-07:00)
Language:

NOSS 3-4 (C) - Orbit

View from above orbital plane
View from above orbital plane
View from above satellite
View from above satellite

Ground track
Ground track

The orbit data is extracted from the following two-line orbital elements,

1 31708U 07027C   14208.89528022 0.00000000  00000-0  00000-0 0    09
2 31708  63.4040 252.8108 0110000  37.9451 322.0549 13.40647994    07
Epoch (UTC): 27 July 2014 21:29:12
Eccentricity: 0.0110000
inclination: 63.4040°
perigee height: 1024 km
apogee height: 1189 km
right ascension of ascending node: 252.8108°
argument of perigee: 37.9451°
revolutions per day: 13.40647994
mean anomaly at epoch: 322.0549°
orbit number at epoch: 0

The dashed part of the orbit path shows where the satellite is in the earth's shadow,  

DLR